N2UGS-WX Weather Reports


Display with metric or nautical units.
time (UTC)temp
F
wind
direction
speed
MPH
gust
MPH
rain 1hr
in
rain 24hr
in
rain mn
in
humidity
%
barometer
mb
20260504232003 69 231 8.0 10.0 0.00 0.00 0.00 36 1003.4
20260504230502 70 217 7.0 12.0 0.00 0.00 0.00 38 1003.7
20260504225002 70 305 4.0 13.0 0.00 0.00 0.00 40 1003.7
20260504224001 70 227 7.0 7.0 0.00 0.00 0.00 40 1003.7
20260504222502 71 256 2.0 9.0 0.00 0.00 0.00 39 1003.7
20260504221002 71 267 7.0 16.0 0.00 0.00 0.00 36 1003.4
20260504215502 73 287 6.0 11.0 0.00 0.00 0.00 32 1003.4
20260504214003 74 273 9.0 12.0 0.00 0.00 0.00 31 1003.4
20260504212502 74 235 9.0 11.0 0.00 0.00 0.00 31 1003.4
20260504211002 75 233 8.0 12.0 0.00 0.00 0.00 33 1003.7
20260504205502 73 305 9.0 13.0 0.00 0.00 0.00 35 1003.7
20260504204402 74 250 6.0 12.0 0.00 0.00 0.00 35 1004.1
20260504202902 74 297 3.0 13.0 0.00 0.00 0.00 38 1004.1
20260504201402 74 289 3.0 13.0 0.00 0.00 0.00 39 1004.1
20260504195902 74 275 3.0 8.0 0.00 0.00 0.00 37 1004.4
20260504194402 74 261 4.0 15.0 0.00 0.00 0.00 37 1004.4
20260504193002 76 246 6.0 9.0 0.00 0.00 0.00 35 1004.7
20260504191502 74 268 4.0 9.0 0.00 0.00 0.00 38 1005.1
20260504190501 74 209 9.0 16.0 0.00 0.00 0.00 37 1005.1
20260504185002 73 219 8.0 15.0 0.00 0.00 0.00 38 1005.1
20260504183402 74 230 6.0 11.0 0.00 0.00 0.00 37 1005.4
20260504182002 72 234 6.0 13.0 0.00 0.00 0.00 40 1005.4
20260504180502 72 287 7.0 11.0 0.00 0.00 0.00 39 1005.8
20260504175001 71 205 6.0 13.0 0.00 0.00 0.00 41 1006.1
20260504173501 70 222 4.0 16.0 0.00 0.00 0.00 44 1006.1
20260504172002 69 223 6.0 16.0 0.00 0.00 0.00 45 1006.1
20260504170902 68 249 11.0 19.0 0.00 0.00 0.00 44 1006.1
20260504150503 63 257 8.0 18.0 0.00 0.00 0.00 47 1007.1
20260504140502 60 246 14.0 20.0 0.00 0.00 0.00 49 1007.1
20260504070402 47 250 5.0 9.0 0.00 0.00 0.00 78 1008.8
20260504050502 51 250 8.0 16.0 0.00 0.00 0.00 66 1009.5
20260504045402 50 212 7.0 16.0 0.00 0.00 0.00 66 1009.8
20260504044001 50 275 7.0 11.0 0.00 0.00 0.00 64 1009.8
20260504042902 50 278 4.0 11.0 0.00 0.00 0.00 64 1009.8
20260504041503 50 302 4.0 12.0 0.00 0.00 0.00 64 1009.5
20260504040502 49 224 8.0 18.0 0.00 0.00 0.00 64 1009.5
20260504035002 49 211 5.0 11.0 0.00 0.00 0.00 64 1009.5
20260504033502 50 308 9.0 13.0 0.00 0.00 0.00 62 1009.5
20260504032003 51 260 7.0 11.0 0.00 0.00 0.00 61 1009.8
20260504030502 52 317 6.0 17.0 0.00 0.00 0.00 57 1009.8
20260504025003 52 248 7.0 12.0 0.00 0.00 0.00 56 1009.8
20260504024001 52 304 7.0 9.0 0.00 0.00 0.00 57 1009.8
20260504022402 52 250 9.0 17.0 0.00 0.00 0.00 56 1009.8
20260504015902 51 233 8.0 10.0 0.00 0.00 0.00 59 1009.8
20260504014402 51 223 5.0 11.0 0.00 0.00 0.00 59 1009.8
20260504013002 51 245 5.0 6.0 0.00 0.00 0.00 60 1009.8
20260504010501 54 177 10.0 11.0 0.00 0.00 0.00 49 1009.8
20260504005004 54 271 8.0 18.0 0.00 0.00 0.00 50 1009.8
20260504003502 53 226 7.0 14.0 0.00 0.00 0.00 51 1009.8
20260504002002 53 279 6.0 13.0 0.00 0.00 0.00 53 1009.8
20260504001001 52 264 3.0 13.0 0.00 0.00 0.00 56 1009.8
20260503235502 52 315 6.0 8.0 0.00 0.00 0.00 56 1009.8
20260503234002 53 274 9.0 16.0 0.00 0.00 0.00 55 1010.2